Rechercher aéroport 
image banner adimage banner adimage banner ad
image banner ad

CN33 - Airport Imperial Bldg Helistop

Situé à El Segundo, United States

ICAO - CN33, IATA -

Données fournies par Airmate  

Information générale

Coordonnées: N33°55'49" W118°23'49"
Élévation : 238 feet MSL.
Variation magnétique : 14° East
Voir autres Aéroports à California

Données opérationnelles

Special qualification required
Heure actuelle UTC:
Heure actuelle locale:
Météo à : KLAX - Los Angeles Intl ( 2 km )
METAR: KLAX 240853Z 19003KT 10SM FEW015 FEW040 SCT150 16/12 A2990 RMK AO2 SLP122 T01560122 56004 $
TAF: KLAX 240904Z 2409/2512 VRB03KT P6SM FEW015 SCT150 FM241300 09005KT P6SM SCT025 OVC035 FM242100 26010KT P6SM BKN050 FM250300 26008KT P6SM BKN035 FM250600 VRB03KT P6SM OVC015
Voir NOTAMs / SUP AIP / TFR affectant cet aéroport [VIEW]
Fréquences de communication: [VIEW]

Pistes:

Coordonnées de l'aéroport

Adresse: El Segundo United States

Vue satellite de CN33